User: anonymous   Login
Location: Unspecified
(0.0000°N, 0.0000°E)
Time: 05:47:55
(UTC+00:00)
Language:

STARLINK-35057 - Orbit

View from above orbital plane
View from above orbital plane
View from above satellite
View from above satellite

Ground track
Ground track

The orbit is defined by the following mean orbital elements,

1 65525U          26145.43358911 +.00000000 +00000-0 +27493-3 0 00006
2 65525  97.4483 214.9946 0001784 152.3973 207.7349 15.05651463    03
Epoch (UTC): 25 May 2026 10:24:22
Eccentricity: 0.0001784
inclination: 97.4483°
perigee height: 548 km
apogee height: 551 km
right ascension of ascending node: 214.9946°
argument of perigee: 152.3973°
revolutions per day: 15.05651463
mean anomaly at epoch: 207.7349°

The dashed part of the orbit path shows where the satellite is in the earth's shadow,  

DLR